Location: Caltech
(34.1382°N, 118.1253°W)
Time: 09:07:40
(UTC-08:00)

Daily predictions for brighter satellites

Satellite Brightness Start Highest point End
(mag) Time Altitude Azimuth Time Altitude Azimuth Time Altitude Azimuth
ATLAS 2AS CENTAUR R/B 3.2 16:59:51 10° S 17:07:12 58° ESE 17:15:03 10° NE
NOSS 2-3 (E) 4.3 17:06:43 10° SW 17:11:12 61° WNW 17:16:16 10° NNE
AQUARIUS 4.3 17:07:46 10° SSE 17:12:08 52° ENE 17:16:30 10° N
ASTRO E2 4.2 17:09:00 10° W 17:12:42 36° SSW 17:16:24 10° SE
Cosmos 2227 Rocket 3.8 17:11:08 10° NNE 17:13:50 13° NE 17:16:31 10° E
Cosmos 1500 3.1 17:10:06 10° N 17:13:53 74° E 17:17:37 10° S
Cosmos 2219 3.7 17:09:01 10° N 17:14:09 35° ENE 17:19:16 10° SE
USA 161 4.4 17:15:07 10° NNW 17:17:05 17° WNW 17:19:06 10° WSW
Cosmos 2195 Rocket 4.5 17:14:56 10° N 17:21:07 85° E 17:27:13 10° S
Cosmos 389 Rocket 3.4 17:18:12 10° NNE 17:21:12 26° ENE 17:24:10 10° SE
Meteor 1-18 Rocket 4.4 17:16:43 10° SSW 17:22:15 78° W 17:27:53 10° N
SKYMED 2 4.3 17:19:00 10° NNE 17:22:55 32° E 17:26:47 10° SSE
ATLAS 3B R/B 3.8 17:18:30 10° N 17:23:13 20° NE 17:27:50 10° E
Cosmos 2026 Rocket 4.0 17:18:40 10° N 17:25:04 79° E 17:31:23 10° S
USA 215 3.5 17:19:40 10° SE 17:26:12 78° SW 17:32:45 10° NW
Cosmos 1898 Rocket 4.3 17:23:34 10° SSW 17:28:36 52° WNW 17:33:42 10° N
ERS-2 3.3 17:28:53 10° ESE 17:31:45 22° ENE 17:34:38 10° NNE
Ariane Rocket 3.1 17:27:13 10° SSE 17:32:16 86° WSW 17:37:21 10° NNW
CORIOLIS 4.1 17:28:56 10° SSE 17:34:21 80° ENE 17:39:46 10° N
PSLV R/B 3.4 17:33:23 10° SW 17:36:28 53° SSE 17:38:31 18° ENE
Cosmos 2298 Rocket 4.5 17:33:35 10° SSW 17:38:51 65° WNW 17:44:08 10° N
Cosmos 1125 Rocket 4.3 17:35:41 10° SSE 17:40:18 31° E 17:44:12 13° NE
DELTA 2 R/B (1) 3.7 17:35:51 10° W 17:41:23 69° NNW 17:45:41 17° ENE
Cosmos 2297 Rocket 3.4 17:37:39 10° NNE 17:41:39 19° ENE 17:44:14 15° E
Meteor 2-4 Rocket 4.0 17:37:17 10° SSE 17:42:28 43° E 17:47:33 10° NNE
Cosmos 1937 Rocket 4.4 17:41:16 10° SW 17:46:18 50° WNW 17:51:20 10° N
Cosmos 1666 2.8 17:42:56 10° N 17:46:35 49° E 17:50:12 10° SSE
Cosmos 1932 4.4 17:42:42 10° NNW 17:49:01 63° ENE 17:55:10 10° SE
Hubble Space Telescope 1.9 17:46:57 10° WSW 17:50:44 35° S 17:53:38 15° ESE
Cosmos 1455 Rocket 3.1 17:48:22 10° N 17:52:44 58° E 17:57:03 10° SSE
YAOGAN 1 2.5 17:50:07 10° SSE 17:54:27 84° ENE 17:58:47 10° N
Meteor 1-19 Rocket 4.2 17:50:20 10° S 17:55:56 88° E 18:01:42 10° N
Cosmos 1544 Rocket 3.4 17:51:57 10° N 17:56:19 71° E 18:00:37 10° SSE
Lacrosse 5 4.3 17:54:48 10° WNW 17:58:52 25° WSW 18:02:56 10° S
MOS 1 4.2 17:57:12 10° SSE 18:02:49 68° ENE 18:08:28 10° N
Cosmos 2369 3.8 17:58:23 10° S 18:03:52 55° ESE 18:07:45 20° NE
NOSS 8 (A) 4.4 18:01:50 10° SSW 18:05:17 59° ESE 18:06:05 42° ENE
Cosmos 2278 3.8 18:00:58 10° S 18:06:28 54° ESE 18:10:05 21° NE
Aureole 1 Rocket 4.5 18:03:29 10° NNW 18:09:33 72° WSW 18:17:16 10° S
EO 1 Del DPAF 3.3 18:05:58 10° N 18:09:44 77° WNW 18:13:31 10° SSW
Cosmos 1656 3.8 18:04:40 10° S 18:10:06 52° ESE 18:13:06 25° NE
COSMO-SKYMED 1 2.9 18:06:42 10° N 18:10:59 64° WNW 18:15:16 10° SSW
Cosmos 1607 4.4 18:04:47 10° NW 18:11:12 67° WSW 18:17:31 10° SSE
Delta 2 Rocket 3.8 18:05:50 10° W 18:11:15 74° N 18:13:19 35° ENE
USA 238 DEB 4.0 18:12:07 10° NNW 18:18:57 47° NE 18:23:45 20° ESE
USA 238 4.0 18:12:13 10° NNW 18:19:03 47° NE 18:23:42 21° ESE
Cosmos 1743 3.8 18:15:45 10° NNW 18:19:27 45° W 18:23:09 10° SSW
Cosmos 372 Rocket 3.9 18:14:44 10° S 18:19:56 74° ESE 18:23:00 25° NNE
SJ 16-02 1.2 18:24:24 10° SSW 18:28:46 87° WNW 18:30:23 39° NNE
Atlas Centaur 2 1.8 18:25:06 10° W 18:29:35 50° S 18:30:18 44° SSE
GOES 2 Rocket 4.2 18:25:46 10° WSW 18:30:22 44° S 18:32:18 32° SE
Cosmos 468 4.4 18:25:21 10° N 18:30:40 67° ENE 18:35:55 10° SSE
SPOT 3 Rocket 3.6 18:26:18 10° S 18:31:30 81° WSW 18:36:41 10° NNW
CZ-4 R/B 4.1 18:29:09 10° SW 18:31:57 19° W 18:34:47 10° NW
Cosmos 1697 Rocket 2.7 18:31:13 10° S 18:36:45 59° ESE 18:37:40 52° ENE
FENGYUN 3A 3.8 18:32:15 10° S 18:37:37 75° WSW 18:43:01 10° NNW
ALOS 2.7 18:34:28 10° S 18:39:04 62° W 18:43:42 10° NNW
Nadezhda 2 Rocket 4.5 18:33:50 10° N 18:40:03 59° E 18:46:19 10° SSE
Meteor 1-23 Rocket 4.3 18:34:52 10° S 18:40:40 81° W 18:45:25 16° N
H-2A R/B 3.3 18:39:54 10° SW 18:40:57 21° SSW 18:40:57 21° SSW
Cosmos 2082 3.6 18:37:14 10° NNW 18:42:47 59° ENE 18:42:48 59° ENE
Okean 2 4.5 18:43:32 10° S 18:45:59 35° S 18:45:59 35° S
Meteor 2-11 Rocket 4.3 18:43:02 10° S 18:49:10 82° E 18:52:20 31° N
NOSS 3-2 (A) 4.2 18:43:52 10° NNW 18:51:12 47° NE 18:51:25 47° ENE
Thor Agena Rocket 3.4 18:50:51 72° NE 18:51:21 81° ESE 18:56:36 10° SSW
BREEZE-M DEB (TANK) 3.8 18:49:39 10° NW 18:53:35 78° SW 19:09:43 10° SE
Cosmos 2227 Rocket 2.2 18:52:50 10° NNW 18:58:31 78° WSW 19:04:07 10° SSE
ATLAS 2AS CENTAUR R/B 4.4 18:51:48 10° WSW 18:58:37 32° NW 19:04:49 13° N
Cosmos 1025 Rocket 3.9 18:56:10 10° SSW 18:59:09 43° SSW 18:59:09 43° SSW
Cosmos 158 Rocket 4.4 18:59:24 10° NNW 19:04:23 57° WSW 19:09:12 10° S
Atlas 2A Centaur Rocket 4.1 19:03:24 10° W 19:10:48 24° SW 19:12:00 21° SSW
ATLAS 3B R/B 2.6 19:07:58 10° NNW 19:14:33 75° WSW 19:16:03 55° S
Cosmos 1980 Rocket 3.1 19:09:47 10° SSW 19:13:07 37° S 19:13:07 37° S
NOSS 3-4 (A) 3.5 19:12:58 10° SW 19:19:08 73° WNW 19:19:08 73° WNW
NOSS 3-4 (C) 3.5 19:13:04 10° SW 19:19:11 74° WNW 19:19:11 74° WNW
Cosmos 2297 Rocket 2.8 19:20:31 10° NNW 19:25:59 52° WSW 19:26:17 51° WSW
Hubble Space Telescope 3.5 19:27:51 10° WSW 19:28:59 17° WSW 19:28:59 17° WSW
